Wetterdaten: Freitag, 10.04.2015
Datum Zeit Temp. I. Temp. A. Boden 5 cm Feuchte A. Sonne Luftdruck Regen Wind Sonnenschein
10.04.2015 00:01 21,6 C 7,9 C 8,4 C 58 % 0 % 1027 hPa 0,0 l/m 0,0 km/h (0 Bft) 0 min
10.04.2015 00:04 21,5 C 7,8 C 8,4 C 61 % 0 % 1027 hPa 0,0 l/m 0,0 km/h (0 Bft) 0 min
10.04.2015 00:07 21,6 C 7,8 C 8,4 C 62 % 0 % 1027 hPa 0,0 l/m 0,0 km/h (0 Bft) 0 min
10.04.2015 00:10 21,5 C 7,8 C 8,5 C 62 % 0 % 1027 hPa 0,0 l/m 0,0 km/h (0 Bft) 0 min
10.04.2015 00:13 21,5 C 7,8 C 8,5 C 62 % 0 % 1027 hPa 0,0 l/m 0,0 km/h (0 Bft) 0 min
10.04.2015 00:16 21,5 C 7,8 C 8,3 C 61 % 0 % 1027 hPa 0,0 l/m 0,3 km/h (0 Bft) 0 min
10.04.2015 00:19 21,5 C 7,8 C 8,2 C 61 % 0 % 1027 hPa 0,0 l/m 0,0 km/h (0 Bft) 0 min
10.04.2015 00:22 21,5 C 7,8 C 8,2 C 62 % 0 % 1027 hPa 0,0 l/m 0,0 km/h (0 Bft) 0 min
10.04.2015 00:25 21,5 C 7,9 C 8,2 C 62 % 0 % 1027 hPa 0,0 l/m 0,0 km/h (0 Bft) 0 min
10.04.2015 00:28 21,5 C 7,9 C 8,2 C 61 % 0 % 1027 hPa 0,0 l/m 0,0 km/h (0 Bft) 0 min
10.04.2015 00:31 21,5 C 7,9 C 8,1 C 61 % 0 % 1027 hPa 0,0 l/m 0,0 km/h (0 Bft) 0 min
10.04.2015 00:34 21,5 C 7,8 C 8,1 C 62 % 0 % 1027 hPa 0,0 l/m 0,0 km/h (0 Bft) 0 min
10.04.2015 00:37 21,5 C 7,8 C 8,1 C 62 % 0 % 1027 hPa 0,0 l/m 0,0 km/h (0 Bft) 0 min
10.04.2015 00:40 21,5 C 7,7 C 8,1 C 62 % 0 % 1027 hPa 0,0 l/m 0,0 km/h (0 Bft) 0 min
10.04.2015 00:43 21,5 C 7,7 C 8,1 C 61 % 0 % 1027 hPa 0,0 l/m 0,0 km/h (0 Bft) 0 min
10.04.2015 00:46 21,5 C 7,7 C 8,0 C 61 % 0 % 1027 hPa 0,0 l/m 0,0 km/h (0 Bft) 0 min
10.04.2015 00:49 21,5 C 7,7 C 7,9 C 61 % 0 % 1027 hPa 0,0 l/m 1,5 km/h (1 Bft) 0 min
10.04.2015 00:52 21,5 C 7,7 C 7,8 C 61 % 0 % 1027 hPa 0,0 l/m 0,0 km/h (0 Bft) 0 min
10.04.2015 00:55 21,5 C 7,6 C 7,9 C 60 % 0 % 1027 hPa 0,0 l/m 0,0 km/h (0 Bft) 0 min
10.04.2015 00:58 21,5 C 7,5 C 7,9 C 61 % 0 % 1027 hPa 0,0 l/m 0,0 km/h (0 Bft) 0 min
10.04.2015 01:01 21,5 C 7,5 C 7,9 C 60 % 0 % 1027 hPa 0,0 l/m 0,0 km/h (0 Bft) 0 min
10.04.2015 01:04 21,5 C 7,4 C 7,8 C 61 % 0 % 1027 hPa 0,0 l/m 0,0 km/h (0 Bft) 0 min
10.04.2015 01:07 21,5 C 7,4 C 7,9 C 61 % 0 % 1027 hPa 0,0 l/m 0,0 km/h (0 Bft) 0 min
10.04.2015 01:10 21,5 C 7,3 C 7,8 C 61 % 0 % 1027 hPa 0,0 l/m 0,0 km/h (0 Bft) 0 min
10.04.2015 01:13 21,5 C 7,3 C 7,8 C 61 % 0 % 1027 hPa 0,0 l/m 0,0 km/h (0 Bft) 0 min
10.04.2015 01:16 21,5 C 7,2 C 7,7 C 61 % 0 % 1027 hPa 0,0 l/m 0,0 km/h (0 Bft) 0 min
10.04.2015 01:19 21,5 C 7,2 C 7,6 C 61 % 0 % 1027 hPa 0,0 l/m 0,0 km/h (0 Bft) 0 min
10.04.2015 01:22 21,5 C 7,2 C 7,7 C 62 % 0 % 1027 hPa 0,0 l/m 0,0 km/h (0 Bft) 0 min
10.04.2015 01:25 21,5 C 7,2 C 7,5 C 63 % 0 % 1027 hPa 0,0 l/m 0,0 km/h (0 Bft) 0 min
10.04.2015 01:28 21,5 C 7,2 C 7,6 C 64 % 0 % 1027 hPa 0,0 l/m 0,0 km/h (0 Bft) 0 min
10.04.2015 01:31 21,5 C 7,2 C 7,6 C 65 % 0 % 1027 hPa 0,0 l/m 0,0 km/h (0 Bft) 0 min
10.04.2015 01:34 21,5 C 7,2 C 7,6 C 64 % 0 % 1027 hPa 0,0 l/m 0,0 km/h (0 Bft) 0 min
10.04.2015 01:37 21,5 C 7,1 C 7,5 C 64 % 0 % 1027 hPa 0,0 l/m 0,0 km/h (0 Bft) 0 min
10.04.2015 01:40 21,5 C 7,1 C 7,5 C 63 % 0 % 1027 hPa 0,0 l/m 0,0 km/h (0 Bft) 0 min
10.04.2015 01:43 21,5 C 7,0 C 7,5 C 63 % 0 % 1027 hPa 0,0 l/m 0,0 km/h (0 Bft) 0 min
10.04.2015 01:46 21,5 C 7,0 C 7,3 C 63 % 0 % 1027 hPa 0,0 l/m 0,0 km/h (0 Bft) 0 min
10.04.2015 01:49 21,5 C 6,9 C 7,4 C 64 % 0 % 1027 hPa 0,0 l/m 0,0 km/h (0 Bft) 0 min
10.04.2015 01:52 21,5 C 6,8 C 7,3 C 64 % 0 % 1027 hPa 0,0 l/m 0,0 km/h (0 Bft) 0 min
10.04.2015 01:55 21,5 C 6,7 C 7,3 C 64 % 0 % 1027 hPa 0,0 l/m 0,0 km/h (0 Bft) 0 min
10.04.2015 01:58 21,5 C 6,7 C 7,3 C 64 % 0 % 1027 hPa 0,0 l/m 0,0 km/h (0 Bft) 0 min
10.04.2015 02:01 21,5 C 6,6 C 7,2 C 64 % 0 % 1027 hPa 0,0 l/m 0,0 km/h (0 Bft) 0 min
10.04.2015 02:04 21,5 C 6,5 C 7,3 C 64 % 0 % 1027 hPa 0,0 l/m 0,0 km/h (0 Bft) 0 min
10.04.2015 02:07 21,5 C 6,5 C 7,0 C 63 % 0 % 1027 hPa 0,0 l/m 0,0 km/h (0 Bft) 0 min
10.04.2015 02:10 21,5 C 6,4 C 7,1 C 63 % 0 % 1027 hPa 0,0 l/m 0,0 km/h (0 Bft) 0 min
10.04.2015 02:13 21,5 C 6,3 C 7,1 C 63 % 0 % 1027 hPa 0,0 l/m 0,0 km/h (0 Bft) 0 min
10.04.2015 02:16 21,5 C 6,2 C 7,1 C 63 % 0 % 1027 hPa 0,0 l/m 0,0 km/h (0 Bft) 0 min
10.04.2015 02:19 21,5 C 6,1 C 7,1 C 64 % 0 % 1027 hPa 0,0 l/m 0,0 km/h (0 Bft) 0 min
10.04.2015 02:22 21,5 C 6,1 C 6,6 C 64 % 0 % 1027 hPa 0,0 l/m 0,0 km/h (0 Bft) 0 min
10.04.2015 02:25 21,5 C 6,0 C 6,7 C 64 % 0 % 1027 hPa 0,0 l/m 0,0 km/h (0 Bft) 0 min
10.04.2015 02:28 21,5 C 6,0 C 6,9 C 64 % 0 % 1027 hPa 0,0 l/m 0,0 km/h (0 Bft) 0 min
10.04.2015 02:31 21,5 C 6,0 C 6,9 C 64 % 0 % 1027 hPa 0,0 l/m 0,0 km/h (0 Bft) 0 min
10.04.2015 02:34 21,5 C 6,0 C 6,6 C 64 % 0 % 1027 hPa 0,0 l/m 0,0 km/h (0 Bft) 0 min
10.04.2015 02:37 21,5 C 6,0 C 6,6 C 64 % 0 % 1027 hPa 0,0 l/m 0,0 km/h (0 Bft) 0 min
10.04.2015 02:40 21,5 C 5,8 C 6,7 C 64 % 0 % 1027 hPa 0,0 l/m 0,0 km/h (0 Bft) 0 min
10.04.2015 02:43 21,5 C 5,7 C 6,7 C 64 % 0 % 1027 hPa 0,0 l/m 0,0 km/h (0 Bft) 0 min
10.04.2015 02:46 21,5 C 5,7 C 6,7 C 65 % 0 % 1027 hPa 0,0 l/m 0,0 km/h (0 Bft) 0 min
10.04.2015 02:49 21,4 C 5,6 C 6,7 C 64 % 0 % 1027 hPa 0,0 l/m 0,0 km/h (0 Bft) 0 min
10.04.2015 02:52 21,5 C 5,6 C 6,3 C 64 % 0 % 1027 hPa 0,0 l/m 0,0 km/h (0 Bft) 0 min
10.04.2015 02:55 21,5 C 5,5 C 6,6 C 65 % 0 % 1027 hPa 0,0 l/m 0,0 km/h (0 Bft) 0 min
10.04.2015 02:58 21,5 C 5,4 C 6,5 C 65 % 0 % 1027 hPa 0,0 l/m 0,0 km/h (0 Bft) 0 min
10.04.2015 03:01 21,5 C 5,4 C 6,5 C 65 % 0 % 1027 hPa 0,0 l/m 0,0 km/h (0 Bft) 0 min
10.04.2015 03:04 21,4 C 5,2 C 6,5 C 65 % 0 % 1027 hPa 0,0 l/m 0,0 km/h (0 Bft) 0 min
10.04.2015 03:07 21,5 C 5,2 C 6,4 C 65 % 0 % 1027 hPa 0,0 l/m 0,0 km/h (0 Bft) 0 min
10.04.2015 03:10 21,5 C 5,1 C 6,0 C 65 % 0 % 1027 hPa 0,0 l/m 0,0 km/h (0 Bft) 0 min
10.04.2015 03:13 21,5 C 5,1 C 6,0 C 65 % 0 % 1027 hPa 0,0 l/m 0,0 km/h (0 Bft) 0 min
10.04.2015 03:16 21,5 C 5,0 C 6,2 C 65 % 0 % 1027 hPa 0,0 l/m 0,0 km/h (0 Bft) 0 min
10.04.2015 03:19 21,4 C 4,9 C 6,5 C 66 % 0 % 1027 hPa 0,0 l/m 0,0 km/h (0 Bft) 0 min
10.04.2015 03:22 21,4 C 4,9 C 6,0 C 66 % 0 % 1027 hPa 0,0 l/m 0,0 km/h (0 Bft) 0 min
10.04.2015 03:25 21,5 C 4,8 C 5,9 C 66 % 0 % 1027 hPa 0,0 l/m 0,0 km/h (0 Bft) 0 min
10.04.2015 03:28 21,4 C 4,8 C 5,7 C 66 % 0 % 1027 hPa 0,0 l/m 0,0 km/h (0 Bft) 0 min
10.04.2015 03:31 21,5 C 4,7 C 6,0 C 66 % 0 % 1027 hPa 0,0 l/m 0,0 km/h (0 Bft) 0 min
10.04.2015 03:34 21,4 C 4,6 C 5,8 C 66 % 0 % 1027 hPa 0,0 l/m 0,0 km/h (0 Bft) 0 min
10.04.2015 03:37 21,4 C 4,6 C 6,1 C 66 % 0 % 1027 hPa 0,0 l/m 0,0 km/h (0 Bft) 0 min
10.04.2015 03:40 21,5 C 4,6 C 6,1 C 66 % 0 % 1027 hPa 0,0 l/m 0,0 km/h (0 Bft) 0 min
10.04.2015 03:43 21,4 C 4,5 C 6,2 C 66 % 0 % 1027 hPa 0,0 l/m 0,0 km/h (0 Bft) 0 min
10.04.2015 03:46 21,4 C 4,5 C 6,2 C 66 % 0 % 1027 hPa 0,0 l/m 0,0 km/h (0 Bft) 0 min
10.04.2015 03:49 21,4 C 4,5 C 5,5 C 67 % 0 % 1026 hPa 0,0 l/m 0,0 km/h (0 Bft) 0 min
10.04.2015 03:52 21,5 C 4,4 C 6,0 C 67 % 0 % 1026 hPa 0,0 l/m 0,0 km/h (0 Bft) 0 min
10.04.2015 03:56 21,4 C 4,4 C 5,6 C 66 % 0 % 1026 hPa 0,0 l/m 0,0 km/h (0 Bft) 0 min
10.04.2015 03:59 21,4 C 4,4 C 5,6 C 66 % 0 % 1026 hPa 0,0 l/m 0,0 km/h (0 Bft) 0 min
10.04.2015 04:02 21,4 C 4,4 C 5,6 C 66 % 0 % 1026 hPa 0,0 l/m 0,0 km/h (0 Bft) 0 min
10.04.2015 04:05 21,4 C 4,4 C 5,6 C 66 % 0 % 1026 hPa 0,0 l/m 0,0 km/h (0 Bft) 0 min
10.04.2015 04:08 21,4 C 4,4 C 5,6 C 66 % 0 % 1026 hPa 0,0 l/m 0,0 km/h (0 Bft) 0 min
10.04.2015 04:11 21,4 C 4,4 C 5,6 C 66 % 0 % 1026 hPa 0,0 l/m 0,0 km/h (0 Bft) 0 min
10.04.2015 04:14 21,4 C 4,4 C 5,6 C 66 % 0 % 1026 hPa 0,0 l/m 0,0 km/h (0 Bft) 0 min
10.04.2015 04:17 21,4 C 4,4 C 5,6 C 66 % 0 % 1026 hPa 0,0 l/m 0,0 km/h (0 Bft) 0 min
10.04.2015 04:20 21,4 C 4,4 C 5,6 C 66 % 0 % 1026 hPa 0,0 l/m 0,0 km/h (0 Bft) 0 min
10.04.2015 04:23 21,4 C 4,4 C 5,1 C 66 % 0 % 1026 hPa 0,0 l/m 0,0 km/h (0 Bft) 0 min
10.04.2015 04:26 21,4 C 4,4 C 5,1 C 66 % 0 % 1026 hPa 0,0 l/m 0,0 km/h (0 Bft) 0 min
10.04.2015 04:29 21,4 C 4,4 C 5,1 C 66 % 0 % 1026 hPa 0,0 l/m 0,0 km/h (0 Bft) 0 min
10.04.2015 04:32 21,4 C 4,4 C 5,3 C 66 % 0 % 1026 hPa 0,0 l/m 0,0 km/h (0 Bft) 0 min
10.04.2015 04:35 21,4 C 4,4 C 5,1 C 66 % 0 % 1026 hPa 0,0 l/m 0,0 km/h (0 Bft) 0 min
10.04.2015 04:38 21,4 C 4,4 C 5,1 C 66 % 0 % 1026 hPa 0,0 l/m 0,0 km/h (0 Bft) 0 min
10.04.2015 04:41 21,4 C 4,4 C 5,2 C 66 % 0 % 1026 hPa 0,0 l/m 0,0 km/h (0 Bft) 0 min
10.04.2015 04:44 21,4 C 4,4 C 5,4 C 66 % 0 % 1026 hPa 0,0 l/m 0,0 km/h (0 Bft) 0 min
10.04.2015 04:47 21,4 C 4,4 C 5,3 C 66 % 0 % 1026 hPa 0,0 l/m 0,0 km/h (0 Bft) 0 min
10.04.2015 04:50 21,4 C 4,4 C 4,9 C 66 % 0 % 1026 hPa 0,0 l/m 0,0 km/h (0 Bft) 0 min
10.04.2015 04:53 21,4 C 3,7 C 5,3 C 69 % 0 % 1026 hPa 0,0 l/m 0,0 km/h (0 Bft) 0 min
10.04.2015 04:56 21,4 C 3,7 C 5,4 C 69 % 0 % 1026 hPa 0,0 l/m 0,0 km/h (0 Bft) 0 min
10.04.2015 04:59 21,4 C 3,7 C 5,3 C 69 % 0 % 1026 hPa 0,0 l/m 0,0 km/h (0 Bft) 0 min
10.04.2015 05:02 21,4 C 3,7 C 5,2 C 69 % 0 % 1026 hPa 0,0 l/m 0,0 km/h (0 Bft) 0 min
10.04.2015 05:05 21,4 C 3,7 C 5,2 C 70 % 0 % 1026 hPa 0,0 l/m 0,0 km/h (0 Bft) 0 min
10.04.2015 05:08 21,4 C 3,7 C 5,0 C 70 % 0 % 1026 hPa 0,0 l/m 0,0 km/h (0 Bft) 0 min
10.04.2015 05:11 21,4 C 3,6 C 5,0 C 70 % 0 % 1026 hPa 0,0 l/m 0,0 km/h (0 Bft) 0 min
10.04.2015 05:14 21,4 C 3,5 C 4,8 C 70 % 0 % 1026 hPa 0,0 l/m 0,0 km/h (0 Bft) 0 min
10.04.2015 05:17 21,4 C 3,5 C 4,8 C 70 % 0 % 1026 hPa 0,0 l/m 0,0 km/h (0 Bft) 0 min
10.04.2015 05:20 21,4 C 3,5 C 4,9 C 70 % 0 % 1026 hPa 0,0 l/m 0,0 km/h (0 Bft) 0 min
10.04.2015 05:23 21,4 C 3,4 C 4,8 C 70 % 0 % 1026 hPa 0,0 l/m 0,0 km/h (0 Bft) 0 min
10.04.2015 05:26 21,4 C 3,4 C 4,7 C 70 % 0 % 1026 hPa 0,0 l/m 0,0 km/h (0 Bft) 0 min
10.04.2015 05:29 21,4 C 3,4 C 4,6 C 70 % 0 % 1026 hPa 0,0 l/m 0,7 km/h (0 Bft) 0 min
10.04.2015 05:32 21,4 C 3,4 C 4,8 C 70 % 0 % 1026 hPa 0,0 l/m 3,9 km/h (1 Bft) 0 min
10.04.2015 05:35 21,4 C 3,4 C 4,8 C 70 % 0 % 1026 hPa 0,0 l/m 3,0 km/h (1 Bft) 0 min
10.04.2015 05:38 21,4 C 3,4 C 4,8 C 70 % 0 % 1026 hPa 0,0 l/m 0,0 km/h (0 Bft) 0 min
10.04.2015 05:41 21,4 C 3,4 C 5,0 C 71 % 0 % 1026 hPa 0,0 l/m 0,0 km/h (0 Bft) 0 min
10.04.2015 05:44 21,4 C 3,4 C 4,7 C 71 % 0 % 1026 hPa 0,0 l/m 0,0 km/h (0 Bft) 0 min
10.04.2015 05:47 21,4 C 3,4 C 5,0 C 71 % 0 % 1026 hPa 0,0 l/m 0,0 km/h (0 Bft) 0 min
10.04.2015 05:50 21,4 C 3,4 C 5,0 C 71 % 0 % 1026 hPa 0,0 l/m 0,0 km/h (0 Bft) 0 min
10.04.2015 05:53 21,4 C 3,3 C 4,6 C 71 % 0 % 1026 hPa 0,0 l/m 0,0 km/h (0 Bft) 0 min
10.04.2015 05:56 21,4 C 3,3 C 4,8 C 71 % 0 % 1026 hPa 0,0 l/m 0,0 km/h (0 Bft) 0 min
10.04.2015 05:59 21,4 C 3,3 C 4,8 C 71 % 0 % 1026 hPa 0,0 l/m 0,0 km/h (0 Bft) 0 min
10.04.2015 06:02 21,4 C 3,2 C 4,8 C 71 % 0 % 1026 hPa 0,0 l/m 0,0 km/h (0 Bft) 0 min
10.04.2015 06:05 21,4 C 3,2 C 4,5 C 71 % 0 % 1026 hPa 0,0 l/m 0,0 km/h (0 Bft) 0 min
10.04.2015 06:08 21,4 C 3,1 C 4,8 C 72 % 0 % 1026 hPa 0,0 l/m 0,0 km/h (0 Bft) 0 min
10.04.2015 06:11 21,4 C 3,1 C 4,4 C 72 % 0 % 1026 hPa 0,0 l/m 0,0 km/h (0 Bft) 0 min
10.04.2015 06:14 21,4 C 3,1 C 4,5 C 72 % 0 % 1026 hPa 0,0 l/m 0,0 km/h (0 Bft) 0 min
10.04.2015 06:17 21,4 C 3,0 C 4,6 C 72 % 0 % 1026 hPa 0,0 l/m 0,0 km/h (0 Bft) 0 min
10.04.2015 06:20 21,4 C 3,0 C 4,6 C 72 % 1 % 1026 hPa 0,0 l/m 0,0 km/h (0 Bft) 0 min
10.04.2015 06:23 21,4 C 3,0 C 4,2 C 72 % 1 % 1026 hPa 0,0 l/m 0,0 km/h (0 Bft) 0 min
10.04.2015 06:26 21,4 C 2,9 C 4,4 C 72 % 1 % 1026 hPa 0,0 l/m 0,0 km/h (0 Bft) 0 min
10.04.2015 06:29 21,4 C 2,9 C 4,2 C 72 % 1 % 1026 hPa 0,0 l/m 0,0 km/h (0 Bft) 0 min
10.04.2015 06:32 21,4 C 2,9 C 4,2 C 72 % 1 % 1026 hPa 0,0 l/m 0,0 km/h (0 Bft) 0 min
10.04.2015 06:35 21,4 C 2,9 C 4,4 C 72 % 2 % 1026 hPa 0,0 l/m 0,0 km/h (0 Bft) 0 min
10.04.2015 06:38 21,4 C 2,9 C 4,7 C 72 % 2 % 1026 hPa 0,0 l/m 0,0 km/h (0 Bft) 3 min
10.04.2015 06:41 21,4 C 2,9 C 4,4 C 72 % 3 % 1026 hPa 0,0 l/m 0,0 km/h (0 Bft) 3 min
10.04.2015 06:44 21,4 C 2,9 C 4,4 C 72 % 3 % 1026 hPa 0,0 l/m 0,0 km/h (0 Bft) 3 min
10.04.2015 06:47 21,5 C 2,9 C 4,4 C 72 % 4 % 1026 hPa 0,0 l/m 0,0 km/h (0 Bft) 0 min
10.04.2015 06:50 21,4 C 2,9 C 4,6 C 72 % 4 % 1026 hPa 0,0 l/m 0,0 km/h (0 Bft) 0 min
10.04.2015 06:53 21,4 C 2,9 C 4,7 C 73 % 5 % 1026 hPa 0,0 l/m 0,0 km/h (0 Bft) 0 min
10.04.2015 06:56 21,4 C 2,9 C 4,4 C 73 % 5 % 1026 hPa 0,0 l/m 0,0 km/h (0 Bft) 0 min
10.04.2015 06:59 21,5 C 2,9 C 4,2 C 73 % 6 % 1026 hPa 0,0 l/m 0,0 km/h (0 Bft) 0 min
10.04.2015 07:02 21,4 C 2,9 C 4,3 C 73 % 8 % 1026 hPa 0,0 l/m 0,0 km/h (0 Bft) 0 min
10.04.2015 07:05 21,4 C 2,9 C 4,1 C 73 % 9 % 1026 hPa 0,0 l/m 0,0 km/h (0 Bft) 0 min
10.04.2015 07:08 21,5 C 3,0 C 4,2 C 73 % 10 % 1026 hPa 0,0 l/m 0,0 km/h (0 Bft) 0 min
10.04.2015 07:11 21,4 C 3,0 C 4,4 C 73 % 11 % 1026 hPa 0,0 l/m 0,0 km/h (0 Bft) 3 min
10.04.2015 07:14 21,5 C 3,1 C 4,4 C 73 % 12 % 1027 hPa 0,0 l/m 0,0 km/h (0 Bft) 3 min
10.04.2015 07:17 21,4 C 3,2 C 4,3 C 74 % 12 % 1027 hPa 0,0 l/m 0,0 km/h (0 Bft) 0 min
10.04.2015 07:20 21,5 C 3,3 C 4,5 C 74 % 13 % 1027 hPa 0,0 l/m 0,0 km/h (0 Bft) 0 min
10.04.2015 07:23 21,4 C 3,4 C 4,5 C 74 % 13 % 1027 hPa 0,0 l/m 0,0 km/h (0 Bft) 0 min
10.04.2015 07:26 21,4 C 3,4 C 4,5 C 74 % 14 % 1027 hPa 0,0 l/m 0,0 km/h (0 Bft) 0 min
10.04.2015 07:29 21,5 C 3,6 C 4,7 C 73 % 15 % 1027 hPa 0,0 l/m 0,0 km/h (0 Bft) 0 min
10.04.2015 07:32 21,4 C 3,7 C 4,7 C 73 % 17 % 1027 hPa 0,0 l/m 0,0 km/h (0 Bft) 0 min
10.04.2015 07:35 21,4 C 3,8 C 4,6 C 73 % 18 % 1027 hPa 0,0 l/m 0,0 km/h (0 Bft) 3 min
10.04.2015 07:38 21,4 C 3,9 C 4,6 C 73 % 20 % 1027 hPa 0,0 l/m 0,0 km/h (0 Bft) 3 min
10.04.2015 07:41 21,4 C 4,1 C 4,6 C 73 % 20 % 1027 hPa 0,0 l/m 0,0 km/h (0 Bft) 0 min
10.04.2015 07:44 21,4 C 4,2 C 4,6 C 73 % 23 % 1027 hPa 0,0 l/m 0,0 km/h (0 Bft) 3 min
10.04.2015 07:47 21,4 C 4,4 C 4,8 C 73 % 23 % 1027 hPa 0,0 l/m 0,0 km/h (0 Bft) 3 min
10.04.2015 07:50 21,4 C 4,7 C 4,7 C 73 % 24 % 1027 hPa 0,0 l/m 0,0 km/h (0 Bft) 3 min
10.04.2015 07:53 21,4 C 4,9 C 4,8 C 73 % 23 % 1027 hPa 0,0 l/m 0,0 km/h (0 Bft) 0 min
10.04.2015 07:56 21,4 C 5,1 C 4,8 C 73 % 22 % 1027 hPa 0,0 l/m 0,0 km/h (0 Bft) 0 min
10.04.2015 07:59 21,5 C 5,4 C 4,8 C 72 % 25 % 1027 hPa 0,0 l/m 0,0 km/h (0 Bft) 0 min
10.04.2015 08:02 21,4 C 5,7 C 5,0 C 72 % 27 % 1027 hPa 0,0 l/m 0,0 km/h (0 Bft) 3 min
10.04.2015 08:05 21,4 C 5,9 C 5,1 C 72 % 28 % 1027 hPa 0,0 l/m 0,0 km/h (0 Bft) 3 min
10.04.2015 08:08 21,5 C 6,1 C 5,1 C 72 % 29 % 1027 hPa 0,0 l/m 0,0 km/h (0 Bft) 3 min
10.04.2015 08:11 21,4 C 6,3 C 5,1 C 72 % 30 % 1027 hPa 0,0 l/m 1,2 km/h (1 Bft) 3 min
10.04.2015 08:14 21,5 C 6,6 C 5,3 C 71 % 31 % 1027 hPa 0,0 l/m 1,1 km/h (1 Bft) 3 min
10.04.2015 08:17 21,4 C 6,8 C 5,3 C 71 % 32 % 1027 hPa 0,0 l/m 1,2 km/h (1 Bft) 3 min
10.04.2015 08:20 21,5 C 7,0 C 5,3 C 71 % 33 % 1027 hPa 0,0 l/m 0,1 km/h (0 Bft) 3 min
10.04.2015 08:23 21,5 C 7,3 C 5,4 C 71 % 33 % 1027 hPa 0,0 l/m 0,2 km/h (0 Bft) 3 min
10.04.2015 08:26 21,5 C 7,5 C 5,5 C 70 % 34 % 1027 hPa 0,0 l/m 1,5 km/h (1 Bft) 3 min
10.04.2015 08:29 21,5 C 7,7 C 5,5 C 70 % 34 % 1027 hPa 0,0 l/m 1,6 km/h (1 Bft) 3 min
10.04.2015 08:32 21,5 C 7,9 C 5,7 C 70 % 34 % 1027 hPa 0,0 l/m 1,0 km/h (0 Bft) 0 min
10.04.2015 08:35 21,5 C 7,9 C 5,7 C 70 % 34 % 1027 hPa 0,0 l/m 2,6 km/h (1 Bft) 0 min
10.04.2015 08:38 21,5 C 8,2 C 5,9 C 69 % 36 % 1027 hPa 0,0 l/m 3,0 km/h (1 Bft) 0 min
10.04.2015 08:41 21,5 C 8,2 C 5,8 C 69 % 36 % 1027 hPa 0,0 l/m 3,7 km/h (1 Bft) 0 min
10.04.2015 08:44 21,5 C 8,5 C 5,9 C 68 % 37 % 1027 hPa 0,0 l/m 0,4 km/h (0 Bft) 0 min
10.04.2015 08:47 21,5 C 8,7 C 6,0 C 68 % 37 % 1026 hPa 0,0 l/m 2,0 km/h (1 Bft) 0 min
10.04.2015 08:50 21,5 C 8,9 C 6,1 C 67 % 39 % 1027 hPa 0,0 l/m 2,0 km/h (1 Bft) 0 min
10.04.2015 08:53 21,5 C 9,1 C 6,2 C 67 % 39 % 1026 hPa 0,0 l/m 2,0 km/h (1 Bft) 0 min
10.04.2015 08:56 21,5 C 9,4 C 6,2 C 67 % 39 % 1026 hPa 0,0 l/m 1,3 km/h (1 Bft) 0 min
10.04.2015 08:59 21,5 C 9,6 C 6,4 C 66 % 38 % 1026 hPa 0,0 l/m 0,1 km/h (0 Bft) 0 min
10.04.2015 09:02 21,5 C 9,6 C 6,2 C 66 % 36 % 1026 hPa 0,0 l/m 0,0 km/h (0 Bft) 0 min
10.04.2015 09:05 21,5 C 9,7 C 6,3 C 65 % 38 % 1026 hPa 0,0 l/m 0,7 km/h (0 Bft) 0 min
10.04.2015 09:08 21,5 C 9,9 C 6,3 C 65 % 38 % 1026 hPa 0,0 l/m 4,1 km/h (1 Bft) 0 min
10.04.2015 09:11 21,5 C 10,0 C 6,5 C 64 % 38 % 1026 hPa 0,0 l/m 4,8 km/h (1 Bft) 0 min
10.04.2015 09:14 21,5 C 10,1 C 6,6 C 64 % 40 % 1026 hPa 0,0 l/m 4,0 km/h (1 Bft) 0 min
10.04.2015 09:17 21,5 C 10,3 C 6,7 C 63 % 42 % 1026 hPa 0,0 l/m 5,7 km/h (1 Bft) 0 min
10.04.2015 09:20 21,5 C 10,3 C 6,7 C 63 % 43 % 1026 hPa 0,0 l/m 5,6 km/h (1 Bft) 0 min
10.04.2015 09:23 21,5 C 10,6 C 7,0 C 62 % 42 % 1026 hPa 0,0 l/m 1,0 km/h (0 Bft) 0 min
10.04.2015 09:26 21,5 C 10,6 C 6,9 C 62 % 43 % 1026 hPa 0,0 l/m 4,8 km/h (1 Bft) 0 min
10.04.2015 09:29 21,5 C 10,9 C 6,7 C 61 % 43 % 1026 hPa 0,0 l/m 2,7 km/h (1 Bft) 0 min
10.04.2015 09:32 21,5 C 11,1 C 6,7 C 61 % 46 % 1026 hPa 0,0 l/m 3,5 km/h (1 Bft) 0 min
10.04.2015 09:35 21,6 C 11,4 C 7,0 C 60 % 47 % 1026 hPa 0,0 l/m 4,5 km/h (1 Bft) 0 min
10.04.2015 09:38 21,6 C 11,5 C 7,2 C 60 % 49 % 1026 hPa 0,0 l/m 0,3 km/h (0 Bft) 0 min
10.04.2015 09:41 21,6 C 11,7 C 7,4 C 59 % 50 % 1026 hPa 0,0 l/m 0,3 km/h (0 Bft) 0 min
10.04.2015 09:44 21,6 C 11,8 C 7,4 C 59 % 51 % 1026 hPa 0,0 l/m 5,4 km/h (1 Bft) 0 min
10.04.2015 09:47 21,6 C 11,9 C 7,7 C 59 % 49 % 1026 hPa 0,0 l/m 2,4 km/h (1 Bft) 0 min
10.04.2015 09:50 21,5 C 12,0 C 7,6 C 58 % 49 % 1026 hPa 0,0 l/m 1,4 km/h (1 Bft) 0 min
10.04.2015 09:53 21,5 C 12,0 C 8,0 C 57 % 50 % 1026 hPa 0,0 l/m 4,2 km/h (1 Bft) 0 min
10.04.2015 09:56 21,6 C 12,0 C 7,7 C 57 % 50 % 1026 hPa 0,0 l/m 4,2 km/h (1 Bft) 0 min
10.04.2015 09:59 21,6 C 12,2 C 7,8 C 57 % 63 % 1026 hPa 0,0 l/m 0,6 km/h (0 Bft) 3 min
10.04.2015 10:02 21,5 C 12,4 C 7,7 C 57 % 64 % 1026 hPa 0,0 l/m 0,8 km/h (0 Bft) 3 min
10.04.2015 10:05 21,5 C 12,6 C 7,6 C 56 % 66 % 1026 hPa 0,0 l/m 1,6 km/h (1 Bft) 3 min
10.04.2015 10:08 21,6 C 12,8 C 7,9 C 55 % 67 % 1026 hPa 0,0 l/m 1,6 km/h (1 Bft) 3 min
10.04.2015 10:11 21,6 C 12,9 C 8,2 C 55 % 69 % 1026 hPa 0,0 l/m 2,8 km/h (1 Bft) 3 min
10.04.2015 10:14 21,6 C 13,1 C 7,9 C 55 % 70 % 1026 hPa 0,0 l/m 2,8 km/h (1 Bft) 3 min
10.04.2015 10:17 21,6 C 13,3 C 8,3 C 54 % 71 % 1026 hPa 0,0 l/m 0,1 km/h (0 Bft) 3 min
10.04.2015 10:20 21,5 C 13,3 C 8,4 C 54 % 72 % 1026 hPa 0,0 l/m 0,7 km/h (0 Bft) 3 min
10.04.2015 10:23 21,6 C 13,6 C 8,0 C 54 % 73 % 1026 hPa 0,0 l/m 5,2 km/h (1 Bft) 3 min
10.04.2015 10:26 21,6 C 13,8 C 8,2 C 53 % 73 % 1026 hPa 0,0 l/m 3,3 km/h (1 Bft) 3 min
10.04.2015 10:29 21,6 C 13,9 C 8,5 C 52 % 74 % 1026 hPa 0,0 l/m 0,3 km/h (0 Bft) 3 min
10.04.2015 10:32 21,6 C 14,0 C 8,5 C 52 % 75 % 1026 hPa 0,0 l/m 4,0 km/h (1 Bft) 3 min
10.04.2015 10:35 21,6 C 14,2 C 8,5 C 52 % 75 % 1026 hPa 0,0 l/m 0,9 km/h (0 Bft) 3 min
10.04.2015 10:38 21,6 C 14,4 C 8,3 C 51 % 76 % 1026 hPa 0,0 l/m 0,7 km/h (0 Bft) 3 min
10.04.2015 10:41 21,6 C 14,5 C 9,5 C 50 % 76 % 1026 hPa 0,0 l/m 0,7 km/h (0 Bft) 3 min
10.04.2015 10:44 21,6 C 14,7 C 9,7 C 50 % 76 % 1026 hPa 0,0 l/m 0,7 km/h (0 Bft) 3 min
10.04.2015 10:47 21,6 C 14,9 C 9,2 C 50 % 75 % 1026 hPa 0,0 l/m 3,1 km/h (1 Bft) 3 min
10.04.2015 10:50 21,6 C 15,0 C 9,4 C 49 % 76 % 1026 hPa 0,0 l/m 7,5 km/h (2 Bft) 3 min
10.04.2015 10:53 21,6 C 15,0 C 9,7 C 48 % 76 % 1026 hPa 0,0 l/m 5,6 km/h (1 Bft) 3 min
10.04.2015 10:56 21,6 C 15,4 C 9,4 C 48 % 76 % 1026 hPa 0,0 l/m 5,7 km/h (1 Bft) 3 min
10.04.2015 10:59 21,6 C 15,4 C 9,9 C 44 % 77 % 1026 hPa 0,0 l/m 5,4 km/h (1 Bft) 3 min
10.04.2015 11:02 21,6 C 15,4 C 9,7 C 44 % 77 % 1026 hPa 0,0 l/m 0,4 km/h (0 Bft) 3 min
10.04.2015 11:05 21,6 C 15,4 C 9,7 C 44 % 77 % 1026 hPa 0,0 l/m 4,8 km/h (1 Bft) 3 min
10.04.2015 11:08 21,6 C 15,4 C 10,1 C 44 % 78 % 1026 hPa 0,0 l/m 4,8 km/h (1 Bft) 3 min
10.04.2015 11:11 21,6 C 15,8 C 10,1 C 44 % 77 % 1026 hPa 0,0 l/m 2,3 km/h (1 Bft) 3 min
10.04.2015 11:14 21,6 C 15,9 C 10,6 C 43 % 78 % 1026 hPa 0,0 l/m 7,2 km/h (2 Bft) 3 min
10.04.2015 11:17 21,6 C 16,1 C 10,1 C 44 % 78 % 1026 hPa 0,0 l/m 4,9 km/h (1 Bft) 3 min
10.04.2015 11:20 21,6 C 16,3 C 10,0 C 44 % 78 % 1026 hPa 0,0 l/m 4,9 km/h (1 Bft) 3 min
10.04.2015 11:23 21,6 C 16,5 C 10,7 C 44 % 78 % 1026 hPa 0,0 l/m 1,3 km/h (1 Bft) 3 min
10.04.2015 11:26 21,6 C 16,7 C 11,1 C 43 % 78 % 1026 hPa 0,0 l/m 5,4 km/h (1 Bft) 3 min
10.04.2015 11:29 21,6 C 16,8 C 11,2 C 43 % 78 % 1026 hPa 0,0 l/m 4,6 km/h (1 Bft) 3 min
10.04.2015 11:32 21,6 C 16,8 C 10,8 C 43 % 78 % 1026 hPa 0,0 l/m 4,1 km/h (1 Bft) 3 min
10.04.2015 11:35 21,6 C 17,0 C 11,2 C 42 % 78 % 1026 hPa 0,0 l/m 0,6 km/h (0 Bft) 3 min
10.04.2015 11:38 21,6 C 17,1 C 11,2 C 41 % 79 % 1026 hPa 0,0 l/m 6,1 km/h (2 Bft) 3 min
10.04.2015 11:41 21,6 C 17,1 C 11,3 C 41 % 79 % 1025 hPa 0,0 l/m 2,2 km/h (1 Bft) 3 min
10.04.2015 11:44 21,6 C 17,0 C 10,4 C 40 % 79 % 1025 hPa 0,0 l/m 0,3 km/h (0 Bft) 3 min
10.04.2015 11:47 21,6 C 17,0 C 10,3 C 41 % 79 % 1025 hPa 0,0 l/m 1,5 km/h (1 Bft) 3 min
10.04.2015 11:50 21,6 C 17,2 C 10,7 C 39 % 79 % 1025 hPa 0,0 l/m 6,5 km/h (2 Bft) 3 min
10.04.2015 11:53 21,6 C 17,2 C 10,4 C 39 % 79 % 1025 hPa 0,0 l/m 2,0 km/h (1 Bft) 3 min
10.04.2015 11:56 21,6 C 17,3 C 12,4 C 39 % 79 % 1025 hPa 0,0 l/m 3,3 km/h (1 Bft) 3 min
10.04.2015 11:59 21,6 C 17,5 C 12,4 C 39 % 79 % 1025 hPa 0,0 l/m 3,1 km/h (1 Bft) 3 min
10.04.2015 12:02 21,6 C 17,6 C 12,2 C 38 % 79 % 1025 hPa 0,0 l/m 4,9 km/h (1 Bft) 3 min
10.04.2015 12:05 21,6 C 17,5 C 11,9 C 36 % 79 % 1025 hPa 0,0 l/m 3,3 km/h (1 Bft) 3 min
10.04.2015 12:08 21,6 C 17,6 C 11,8 C 37 % 79 % 1025 hPa 0,0 l/m 3,6 km/h (1 Bft) 3 min
10.04.2015 12:11 21,6 C 17,6 C 12,2 C 35 % 79 % 1025 hPa 0,0 l/m 1,8 km/h (1 Bft) 3 min
10.04.2015 12:14 21,6 C 17,8 C 12,2 C 36 % 79 % 1025 hPa 0,0 l/m 7,6 km/h (2 Bft) 3 min
10.04.2015 12:17 21,6 C 18,0 C 11,8 C 36 % 79 % 1025 hPa 0,0 l/m 8,9 km/h (2 Bft) 3 min
10.04.2015 12:20 21,6 C 18,1 C 11,9 C 36 % 79 % 1025 hPa 0,0 l/m 9,5 km/h (2 Bft) 3 min
10.04.2015 12:23 21,6 C 18,2 C 12,8 C 36 % 79 % 1025 hPa 0,0 l/m 9,5 km/h (2 Bft) 3 min
10.04.2015 12:26 21,6 C 18,2 C 13,5 C 36 % 79 % 1025 hPa 0,0 l/m 9,5 km/h (2 Bft) 3 min
10.04.2015 12:29 21,6 C 18,2 C 12,7 C 36 % 79 % 1025 hPa 0,0 l/m 1,4 km/h (1 Bft) 3 min
10.04.2015 12:32 21,6 C 18,7 C 12,7 C 36 % 79 % 1025 hPa 0,0 l/m 5,6 km/h (1 Bft) 3 min
10.04.2015 12:35 21,6 C 18,8 C 12,5 C 34 % 79 % 1025 hPa 0,0 l/m 7,9 km/h (2 Bft) 3 min
10.04.2015 12:38 21,6 C 18,9 C 12,8 C 34 % 79 % 1025 hPa 0,0 l/m 7,9 km/h (2 Bft) 3 min
10.04.2015 12:41 21,6 C 19,0 C 13,0 C 34 % 79 % 1025 hPa 0,0 l/m 11,2 km/h (2 Bft) 3 min
10.04.2015 12:44 21,6 C 19,0 C 13,1 C 32 % 79 % 1025 hPa 0,0 l/m 3,4 km/h (1 Bft) 3 min
10.04.2015 12:47 21,6 C 19,0 C 13,1 C 32 % 79 % 1025 hPa 0,0 l/m 1,2 km/h (1 Bft) 3 min
10.04.2015 12:50 21,6 C 19,1 C 14,3 C 33 % 79 % 1025 hPa 0,0 l/m 3,4 km/h (1 Bft) 3 min
10.04.2015 12:53 21,6 C 19,1 C 14,6 C 33 % 80 % 1025 hPa 0,0 l/m 3,4 km/h (1 Bft) 3 min
10.04.2015 12:56 21,6 C 18,9 C 13,2 C 32 % 80 % 1025 hPa 0,0 l/m 3,4 km/h (1 Bft) 3 min
10.04.2015 12:59 21,6 C 19,1 C 12,5 C 33 % 80 % 1025 hPa 0,0 l/m 3,6 km/h (1 Bft) 3 min
10.04.2015 13:02 21,6 C 19,3 C 12,5 C 33 % 80 % 1025 hPa 0,0 l/m 5,7 km/h (1 Bft) 3 min
10.04.2015 13:05 21,6 C 19,2 C 12,5 C 31 % 80 % 1025 hPa 0,0 l/m 10,6 km/h (2 Bft) 3 min
10.04.2015 13:08 21,6 C 19,3 C 12,9 C 31 % 80 % 1025 hPa 0,0 l/m 11,6 km/h (2 Bft) 3 min
10.04.2015 13:11 21,6 C 19,4 C 13,1 C 31 % 80 % 1025 hPa 0,0 l/m 4,3 km/h (1 Bft) 3 min
10.04.2015 13:14 21,6 C 19,5 C 13,1 C 30 % 79 % 1025 hPa 0,0 l/m 4,2 km/h (1 Bft) 3 min
10.04.2015 13:17 21,6 C 19,4 C 13,2 C 28 % 80 % 1025 hPa 0,0 l/m 1,2 km/h (1 Bft) 3 min
10.04.2015 13:20 21,6 C 19,4 C 13,7 C 29 % 79 % 1025 hPa 0,0 l/m 8,8 km/h (2 Bft) 3 min
10.04.2015 13:23 21,6 C 19,6 C 14,3 C 30 % 80 % 1025 hPa 0,0 l/m 8,4 km/h (2 Bft) 3 min
10.04.2015 13:26 21,7 C 19,7 C 14,3 C 29 % 79 % 1025 hPa 0,0 l/m 8,8 km/h (2 Bft) 3 min
10.04.2015 13:29 21,6 C 19,8 C 14,5 C 29 % 80 % 1025 hPa 0,0 l/m 9,5 km/h (2 Bft) 3 min
10.04.2015 13:32 21,6 C 19,8 C 14,5 C 27 % 80 % 1025 hPa 0,0 l/m 3,9 km/h (1 Bft) 3 min
10.04.2015 13:35 21,6 C 19,6 C 14,8 C 26 % 80 % 1025 hPa 0,0 l/m 1,1 km/h (1 Bft) 3 min
10.04.2015 13:38 21,6 C 19,8 C 15,7 C 26 % 79 % 1025 hPa 0,0 l/m 5,0 km/h (1 Bft) 3 min
10.04.2015 13:41 21,6 C 20,0 C 15,6 C 27 % 79 % 1025 hPa 0,0 l/m 5,1 km/h (1 Bft) 3 min
10.04.2015 13:44 21,7 C 20,1 C 15,0 C 27 % 79 % 1025 hPa 0,0 l/m 6,3 km/h (2 Bft) 3 min
10.04.2015 13:47 21,6 C 20,2 C 15,0 C 27 % 80 % 1024 hPa 0,0 l/m 4,5 km/h (1 Bft) 3 min
10.04.2015 13:50 21,7 C 20,3 C 17,5 C 26 % 80 % 1024 hPa 0,0 l/m 5,7 km/h (1 Bft) 3 min
10.04.2015 13:53 21,7 C 20,4 C 17,5 C 24 % 80 % 1024 hPa 0,0 l/m 6,9 km/h (2 Bft) 3 min
10.04.2015 13:56 21,7 C 20,5 C 16,8 C 24 % 80 % 1024 hPa 0,0 l/m 5,9 km/h (2 Bft) 3 min
10.04.2015 13:59 21,7 C 20,4 C 17,2 C 24 % 80 % 1024 hPa 0,0 l/m 5,9 km/h (2 Bft) 3 min
10.04.2015 14:02 21,7 C 20,5 C 16,1 C 24 % 80 % 1024 hPa 0,0 l/m 6,9 km/h (2 Bft) 3 min
10.04.2015 14:05 21,7 C 20,6 C 16,0 C 24 % 80 % 1024 hPa 0,0 l/m 5,9 km/h (2 Bft) 3 min
10.04.2015 14:08 21,7 C 20,5 C 16,9 C 20 % 80 % 1024 hPa 0,0 l/m 5,9 km/h (2 Bft) 3 min
10.04.2015 14:11 21,6 C 20,4 C 16,6 C 20 % 79 % 1024 hPa 0,0 l/m 0,4 km/h (0 Bft) 3 min
10.04.2015 14:14 21,6 C 20,4 C 18,6 C 20 % 79 % 1024 hPa 0,0 l/m 0,4 km/h (0 Bft) 3 min
10.04.2015 14:17 21,6 C 20,6 C 17,8 C 24 % 80 % 1024 hPa 0,0 l/m 2,7 km/h (1 Bft) 3 min
10.04.2015 14:20 21,7 C 20,8 C 18,7 C 24 % 80 % 1024 hPa 0,0 l/m 6,5 km/h (2 Bft) 3 min
10.04.2015 14:23 21,7 C 20,9 C 19,4 C 25 % 80 % 1024 hPa 0,0 l/m 7,4 km/h (2 Bft) 3 min
10.04.2015 14:26 21,7 C 20,7 C 18,9 C 20 % 80 % 1024 hPa 0,0 l/m 2,5 km/h (1 Bft) 3 min
10.04.2015 14:29 21,7 C 20,8 C 17,3 C 24 % 80 % 1024 hPa 0,0 l/m 2,5 km/h (1 Bft) 3 min
10.04.2015 14:32 21,8 C 21,0 C 19,0 C 25 % 80 % 1024 hPa 0,0 l/m 2,5 km/h (1 Bft) 3 min
10.04.2015 14:35 21,8 C 21,0 C 17,9 C 20 % 80 % 1024 hPa 0,0 l/m 1,1 km/h (1 Bft) 3 min
10.04.2015 14:38 21,7 C 20,7 C 17,4 C 20 % 80 % 1024 hPa 0,0 l/m 3,6 km/h (1 Bft) 3 min
10.04.2015 14:41 21,8 C 20,6 C 17,4 C 20 % 80 % 1024 hPa 0,0 l/m 4,9 km/h (1 Bft) 3 min
10.04.2015 14:44 21,8 C 20,6 C 17,4 C 20 % 79 % 1024 hPa 0,0 l/m 4,0 km/h (1 Bft) 3 min
10.04.2015 14:47 21,8 C 20,7 C 17,5 C 20 % 79 % 1024 hPa 0,0 l/m 9,0 km/h (2 Bft) 3 min
10.04.2015 14:50 21,8 C 20,7 C 17,5 C 20 % 79 % 1024 hPa 0,0 l/m 5,5 km/h (1 Bft) 3 min
10.04.2015 14:53 21,8 C 20,7 C 17,4 C 20 % 79 % 1024 hPa 0,0 l/m 3,1 km/h (1 Bft) 3 min
10.04.2015 14:56 21,8 C 20,8 C 17,3 C 20 % 79 % 1024 hPa 0,0 l/m 3,1 km/h (1 Bft) 3 min
10.04.2015 14:59 21,8 C 20,9 C 18,5 C 20 % 80 % 1024 hPa 0,0 l/m 4,4 km/h (1 Bft) 3 min
10.04.2015 15:02 21,8 C 20,9 C 17,5 C 20 % 79 % 1024 hPa 0,0 l/m 5,6 km/h (1 Bft) 3 min
10.04.2015 15:05 21,8 C 21,0 C 17,6 C 20 % 79 % 1024 hPa 0,0 l/m 6,1 km/h (2 Bft) 3 min
10.04.2015 15:08 21,8 C 21,1 C 18,3 C 20 % 79 % 1023 hPa 0,0 l/m 4,4 km/h (1 Bft) 3 min
10.04.2015 15:11 21,8 C 21,3 C 19,7 C 20 % 79 % 1023 hPa 0,0 l/m 7,4 km/h (2 Bft) 3 min
10.04.2015 15:14 21,8 C 21,2 C 18,7 C 20 % 79 % 1023 hPa 0,0 l/m 10,2 km/h (2 Bft) 3 min
10.04.2015 15:17 21,8 C 21,3 C 17,8 C 20 % 79 % 1023 hPa 0,0 l/m 4,6 km/h (1 Bft) 3 min
10.04.2015 15:20 21,8 C 21,3 C 18,7 C 20 % 79 % 1023 hPa 0,0 l/m 9,3 km/h (2 Bft) 3 min
10.04.2015 15:23 21,8 C 21,4 C 19,7 C 20 % 79 % 1023 hPa 0,0 l/m 7,8 km/h (2 Bft) 3 min
10.04.2015 15:26 21,8 C 21,4 C 19,1 C 20 % 79 % 1023 hPa 0,0 l/m 7,2 km/h (2 Bft) 3 min
10.04.2015 15:29 21,8 C 21,5 C 19,6 C 20 % 79 % 1023 hPa 0,0 l/m 4,0 km/h (1 Bft) 3 min
10.04.2015 15:32 21,8 C 21,4 C 19,0 C 20 % 79 % 1023 hPa 0,0 l/m 9,0 km/h (2 Bft) 3 min
10.04.2015 15:35 21,8 C 21,4 C 19,0 C 20 % 79 % 1023 hPa 0,0 l/m 4,8 km/h (1 Bft) 3 min
10.04.2015 15:38 21,8 C 21,4 C 20,1 C 20 % 79 % 1023 hPa 0,0 l/m 4,8 km/h (1 Bft) 3 min
10.04.2015 15:41 21,8 C 21,6 C 20,0 C 20 % 79 % 1023 hPa 0,0 l/m 3,0 km/h (1 Bft) 3 min
10.04.2015 15:44 21,8 C 21,6 C 19,4 C 20 % 79 % 1023 hPa 0,0 l/m 3,0 km/h (1 Bft) 3 min
10.04.2015 15:47 21,8 C 21,6 C 19,1 C 20 % 79 % 1023 hPa 0,0 l/m 1,0 km/h (0 Bft) 3 min
10.04.2015 15:50 21,9 C 21,6 C 19,1 C 20 % 79 % 1023 hPa 0,0 l/m 10,4 km/h (2 Bft) 3 min
10.04.2015 15:53 21,8 C 21,5 C 18,5 C 20 % 79 % 1023 hPa 0,0 l/m 7,5 km/h (2 Bft) 3 min
10.04.2015 15:56 21,9 C 21,5 C 19,7 C 20 % 79 % 1023 hPa 0,0 l/m 4,7 km/h (1 Bft) 3 min
10.04.2015 15:59 21,9 C 21,5 C 20,2 C 20 % 79 % 1023 hPa 0,0 l/m 4,7 km/h (1 Bft) 3 min
10.04.2015 16:02 21,9 C 21,5 C 18,9 C 20 % 79 % 1023 hPa 0,0 l/m 3,4 km/h (1 Bft) 3 min
10.04.2015 16:05 21,9 C 21,6 C 19,3 C 20 % 79 % 1023 hPa 0,0 l/m 4,6 km/h (1 Bft) 3 min
10.04.2015 16:08 21,8 C 21,6 C 19,3 C 20 % 79 % 1023 hPa 0,0 l/m 5,2 km/h (1 Bft) 3 min
10.04.2015 16:11 21,8 C 21,6 C 20,2 C 20 % 79 % 1023 hPa 0,0 l/m 4,5 km/h (1 Bft) 3 min
10.04.2015 16:14 21,9 C 21,6 C 20,0 C 20 % 79 % 1023 hPa 0,0 l/m 4,0 km/h (1 Bft) 3 min
10.04.2015 16:17 21,9 C 21,9 C 20,7 C 20 % 79 % 1023 hPa 0,0 l/m 7,0 km/h (2 Bft) 3 min
10.04.2015 16:20 21,9 C 22,0 C 20,6 C 20 % 79 % 1023 hPa 0,0 l/m 8,6 km/h (2 Bft) 3 min
10.04.2015 16:23 21,9 C 22,1 C 20,3 C 20 % 79 % 1023 hPa 0,0 l/m 8,6 km/h (2 Bft) 3 min
10.04.2015 16:26 21,9 C 22,0 C 19,9 C 20 % 79 % 1023 hPa 0,0 l/m 14,9 km/h (3 Bft) 3 min
10.04.2015 16:29 21,9 C 21,9 C 19,9 C 20 % 79 % 1023 hPa 0,0 l/m 8,3 km/h (2 Bft) 3 min
10.04.2015 16:32 21,9 C 21,8 C 19,1 C 20 % 79 % 1023 hPa 0,0 l/m 0,2 km/h (0 Bft) 3 min
10.04.2015 16:35 22,0 C 21,8 C 19,2 C 20 % 79 % 1023 hPa 0,0 l/m 4,8 km/h (1 Bft) 3 min
10.04.2015 16:38 21,9 C 21,6 C 18,9 C 20 % 78 % 1023 hPa 0,0 l/m 7,9 km/h (2 Bft) 3 min
10.04.2015 16:41 21,9 C 21,4 C 19,4 C 20 % 79 % 1022 hPa 0,0 l/m 7,2 km/h (2 Bft) 3 min
10.04.2015 16:44 21,9 C 21,2 C 19,2 C 20 % 79 % 1022 hPa 0,0 l/m 5,2 km/h (1 Bft) 3 min
10.04.2015 16:47 21,9 C 21,2 C 19,2 C 20 % 79 % 1022 hPa 0,0 l/m 4,0 km/h (1 Bft) 3 min
10.04.2015 16:50 21,9 C 21,3 C 18,9 C 20 % 79 % 1022 hPa 0,0 l/m 9,2 km/h (2 Bft) 3 min
10.04.2015 16:53 22,0 C 21,3 C 19,1 C 20 % 79 % 1022 hPa 0,0 l/m 9,2 km/h (2 Bft) 3 min
10.04.2015 16:56 22,0 C 21,3 C 19,1 C 20 % 78 % 1022 hPa 0,0 l/m 8,9 km/h (2 Bft) 3 min
10.04.2015 16:59 22,0 C 21,3 C 19,1 C 20 % 77 % 1022 hPa 0,0 l/m 6,9 km/h (2 Bft) 3 min
10.04.2015 17:02 22,0 C 21,3 C 19,2 C 20 % 76 % 1022 hPa 0,0 l/m 2,4 km/h (1 Bft) 3 min
10.04.2015 17:05 22,0 C 21,3 C 18,9 C 20 % 76 % 1022 hPa 0,0 l/m 4,2 km/h (1 Bft) 3 min
10.04.2015 17:08 22,0 C 21,4 C 18,7 C 20 % 77 % 1022 hPa 0,0 l/m 2,0 km/h (1 Bft) 3 min
10.04.2015 17:11 21,9 C 21,4 C 19,1 C 20 % 77 % 1022 hPa 0,0 l/m 0,9 km/h (0 Bft) 3 min
10.04.2015 17:14 22,0 C 21,5 C 18,8 C 20 % 77 % 1022 hPa 0,0 l/m 0,2 km/h (0 Bft) 3 min
10.04.2015 17:17 22,0 C 21,5 C 18,5 C 20 % 75 % 1022 hPa 0,0 l/m 4,0 km/h (1 Bft) 3 min
10.04.2015 17:20 22,0 C 21,5 C 19,0 C 20 % 76 % 1022 hPa 0,0 l/m 0,3 km/h (0 Bft) 3 min
10.04.2015 17:23 22,0 C 21,5 C 18,8 C 20 % 76 % 1022 hPa 0,0 l/m 0,3 km/h (0 Bft) 3 min
10.04.2015 17:26 22,0 C 21,5 C 18,7 C 20 % 76 % 1022 hPa 0,0 l/m 7,1 km/h (2 Bft) 3 min
10.04.2015 17:29 22,0 C 21,4 C 18,8 C 20 % 77 % 1022 hPa 0,0 l/m 8,8 km/h (2 Bft) 3 min
10.04.2015 17:32 21,9 C 21,3 C 18,7 C 20 % 77 % 1022 hPa 0,0 l/m 10,3 km/h (2 Bft) 3 min
10.04.2015 17:35 22,0 C 21,3 C 18,6 C 20 % 76 % 1022 hPa 0,0 l/m 10,1 km/h (2 Bft) 3 min
10.04.2015 17:38 22,0 C 21,2 C 18,9 C 20 % 75 % 1022 hPa 0,0 l/m 8,5 km/h (2 Bft) 3 min
10.04.2015 17:41 22,0 C 21,2 C 18,7 C 20 % 73 % 1022 hPa 0,0 l/m 5,9 km/h (2 Bft) 3 min
10.04.2015 17:44 22,0 C 21,2 C 18,8 C 20 % 72 % 1022 hPa 0,0 l/m 8,3 km/h (2 Bft) 3 min
10.04.2015 17:47 22,0 C 21,1 C 18,8 C 20 % 71 % 1022 hPa 0,0 l/m 8,7 km/h (2 Bft) 3 min
10.04.2015 17:50 22,0 C 21,1 C 19,0 C 20 % 71 % 1022 hPa 0,0 l/m 8,3 km/h (2 Bft) 3 min
10.04.2015 17:53 22,0 C 21,2 C 18,9 C 20 % 69 % 1022 hPa 0,0 l/m 1,4 km/h (1 Bft) 3 min
10.04.2015 17:56 22,0 C 21,2 C 18,6 C 20 % 67 % 1022 hPa 0,0 l/m 6,6 km/h (2 Bft) 3 min
10.04.2015 17:59 22,0 C 21,1 C 18,7 C 20 % 63 % 1022 hPa 0,0 l/m 5,6 km/h (1 Bft) 3 min
10.04.2015 18:02 22,0 C 21,0 C 18,4 C 20 % 60 % 1022 hPa 0,0 l/m 7,0 km/h (2 Bft) 3 min
10.04.2015 18:05 22,0 C 21,0 C 18,4 C 20 % 60 % 1022 hPa 0,0 l/m 9,3 km/h (2 Bft) 3 min
10.04.2015 18:08 22,0 C 20,8 C 18,3 C 20 % 60 % 1022 hPa 0,0 l/m 7,2 km/h (2 Bft) 3 min
10.04.2015 18:11 22,0 C 20,6 C 18,5 C 20 % 45 % 1022 hPa 0,0 l/m 8,4 km/h (2 Bft) 3 min
10.04.2015 18:14 22,0 C 20,6 C 18,4 C 20 % 42 % 1022 hPa 0,0 l/m 8,4 km/h (2 Bft) 3 min
10.04.2015 18:17 22,0 C 20,5 C 18,3 C 20 % 41 % 1022 hPa 0,0 l/m 4,8 km/h (1 Bft) 3 min
10.04.2015 18:20 21,9 C 20,4 C 18,3 C 20 % 38 % 1022 hPa 0,0 l/m 8,3 km/h (2 Bft) 3 min
10.04.2015 18:23 21,9 C 20,3 C 18,1 C 20 % 38 % 1022 hPa 0,0 l/m 6,7 km/h (2 Bft) 3 min
10.04.2015 18:26 22,0 C 20,2 C 18,0 C 20 % 33 % 1022 hPa 0,0 l/m 5,4 km/h (1 Bft) 3 min
10.04.2015 18:29 21,9 C 20,1 C 18,0 C 20 % 39 % 1022 hPa 0,0 l/m 6,3 km/h (2 Bft) 3 min
10.04.2015 18:32 21,9 C 20,1 C 18,1 C 20 % 40 % 1022 hPa 0,0 l/m 7,2 km/h (2 Bft) 3 min
10.04.2015 18:35 21,9 C 20,1 C 17,9 C 20 % 40 % 1022 hPa 0,0 l/m 7,2 km/h (2 Bft) 3 min
10.04.2015 18:38 21,9 C 20,0 C 17,9 C 20 % 37 % 1022 hPa 0,0 l/m 5,3 km/h (1 Bft) 3 min
10.04.2015 18:41 21,9 C 20,0 C 17,8 C 20 % 31 % 1022 hPa 0,0 l/m 6,3 km/h (2 Bft) 3 min
10.04.2015 18:44 21,9 C 19,9 C 17,8 C 20 % 31 % 1022 hPa 0,0 l/m 5,8 km/h (2 Bft) 3 min
10.04.2015 18:47 21,9 C 19,8 C 17,8 C 20 % 29 % 1022 hPa 0,0 l/m 6,3 km/h (2 Bft) 3 min
10.04.2015 18:50 21,9 C 19,8 C 17,6 C 20 % 25 % 1022 hPa 0,0 l/m 4,0 km/h (1 Bft) 3 min
10.04.2015 18:53 21,9 C 19,7 C 17,6 C 20 % 25 % 1022 hPa 0,0 l/m 5,4 km/h (1 Bft) 3 min
10.04.2015 18:56 21,9 C 19,6 C 17,6 C 20 % 22 % 1022 hPa 0,0 l/m 4,6 km/h (1 Bft) 3 min
10.04.2015 18:59 21,8 C 19,5 C 17,6 C 20 % 19 % 1022 hPa 0,0 l/m 4,0 km/h (1 Bft) 3 min
10.04.2015 19:02 21,8 C 19,4 C 17,3 C 20 % 17 % 1022 hPa 0,0 l/m 2,4 km/h (1 Bft) 3 min
10.04.2015 19:05 21,8 C 19,3 C 17,3 C 20 % 15 % 1022 hPa 0,0 l/m 0,3 km/h (0 Bft) 3 min
10.04.2015 19:08 21,8 C 19,2 C 17,1 C 20 % 13 % 1021 hPa 0,0 l/m 0,0 km/h (0 Bft) 3 min
10.04.2015 19:11 21,9 C 19,1 C 17,1 C 20 % 11 % 1021 hPa 0,0 l/m 0,0 km/h (0 Bft) 3 min
10.04.2015 19:14 21,8 C 19,0 C 17,1 C 20 % 10 % 1021 hPa 0,0 l/m 0,0 km/h (0 Bft) 3 min
10.04.2015 19:17 21,9 C 18,9 C 16,9 C 20 % 9 % 1021 hPa 0,0 l/m 0,0 km/h (0 Bft) 3 min
10.04.2015 19:20 21,8 C 18,8 C 16,9 C 21 % 8 % 1021 hPa 0,0 l/m 0,0 km/h (0 Bft) 3 min
10.04.2015 19:23 21,8 C 18,6 C 16,7 C 22 % 7 % 1022 hPa 0,0 l/m 0,0 km/h (0 Bft) 3 min
10.04.2015 19:26 21,8 C 18,5 C 16,6 C 23 % 6 % 1022 hPa 0,0 l/m 0,0 km/h (0 Bft) 3 min
10.04.2015 19:29 21,8 C 18,3 C 16,6 C 24 % 5 % 1022 hPa 0,0 l/m 0,0 km/h (0 Bft) 3 min
10.04.2015 19:32 21,8 C 18,2 C 16,4 C 25 % 5 % 1022 hPa 0,0 l/m 0,0 km/h (0 Bft) 3 min
10.04.2015 19:35 21,8 C 18,1 C 16,4 C 25 % 4 % 1022 hPa 0,0 l/m 0,0 km/h (0 Bft) 3 min
10.04.2015 19:38 21,8 C 17,9 C 16,1 C 26 % 4 % 1022 hPa 0,0 l/m 0,0 km/h (0 Bft) 3 min
10.04.2015 19:41 21,8 C 17,9 C 16,2 C 26 % 3 % 1022 hPa 0,0 l/m 0,0 km/h (0 Bft) 0 min
10.04.2015 19:44 21,8 C 17,6 C 16,1 C 27 % 2 % 1022 hPa 0,0 l/m 0,0 km/h (0 Bft) 0 min
10.04.2015 19:47 21,8 C 17,4 C 15,9 C 27 % 1 % 1022 hPa 0,0 l/m 0,0 km/h (0 Bft) 0 min
10.04.2015 19:50 21,8 C 17,0 C 15,9 C 28 % 1 % 1021 hPa 0,0 l/m 0,0 km/h (0 Bft) 0 min
10.04.2015 19:53 21,8 C 16,8 C 15,8 C 29 % 1 % 1021 hPa 0,0 l/m 0,0 km/h (0 Bft) 0 min
10.04.2015 19:56 21,8 C 16,6 C 15,6 C 29 % 1 % 1021 hPa 0,0 l/m 0,6 km/h (0 Bft) 0 min
10.04.2015 19:59 21,8 C 16,5 C 15,5 C 30 % 0 % 1021 hPa 0,0 l/m 0,6 km/h (0 Bft) 0 min
10.04.2015 20:02 21,8 C 16,4 C 15,4 C 30 % 0 % 1021 hPa 0,0 l/m 1,9 km/h (1 Bft) 0 min
10.04.2015 20:05 21,8 C 16,3 C 15,4 C 31 % 0 % 1021 hPa 0,0 l/m 0,9 km/h (0 Bft) 0 min
10.04.2015 20:08 21,7 C 16,1 C 15,3 C 32 % 0 % 1021 hPa 0,0 l/m 1,9 km/h (1 Bft) 0 min
10.04.2015 20:11 21,8 C 16,0 C 15,3 C 32 % 0 % 1021 hPa 0,0 l/m 1,3 km/h (1 Bft) 0 min
10.04.2015 20:14 21,8 C 16,0 C 15,1 C 32 % 0 % 1021 hPa 0,0 l/m 0,6 km/h (0 Bft) 0 min
10.04.2015 20:17 21,7 C 15,8 C 15,0 C 33 % 0 % 1021 hPa 0,0 l/m 0,1 km/h (0 Bft) 0 min
10.04.2015 20:20 21,8 C 15,7 C 15,0 C 33 % 0 % 1021 hPa 0,0 l/m 0,4 km/h (0 Bft) 0 min
10.04.2015 20:23 21,8 C 15,6 C 14,7 C 33 % 0 % 1021 hPa 0,0 l/m 0,0 km/h (0 Bft) 0 min
10.04.2015 20:26 21,8 C 15,5 C 14,4 C 34 % 0 % 1021 hPa 0,0 l/m 0,0 km/h (0 Bft) 0 min
10.04.2015 20:29 21,7 C 15,3 C 14,4 C 34 % 0 % 1022 hPa 0,0 l/m 3,8 km/h (1 Bft) 0 min
10.04.2015 20:32 21,7 C 15,1 C 14,3 C 35 % 0 % 1022 hPa 0,0 l/m 0,0 km/h (0 Bft) 0 min
10.04.2015 20:35 21,7 C 15,0 C 14,5 C 35 % 0 % 1022 hPa 0,0 l/m 0,0 km/h (0 Bft) 0 min
10.04.2015 20:38 21,7 C 14,8 C 14,5 C 36 % 0 % 1022 hPa 0,0 l/m 0,0 km/h (0 Bft) 0 min
10.04.2015 20:41 21,7 C 14,8 C 14,3 C 36 % 0 % 1022 hPa 0,0 l/m 0,0 km/h (0 Bft) 0 min
10.04.2015 20:44 21,7 C 14,5 C 14,2 C 37 % 0 % 1022 hPa 0,0 l/m 0,0 km/h (0 Bft) 0 min
10.04.2015 20:47 21,7 C 14,5 C 14,2 C 37 % 0 % 1022 hPa 0,0 l/m 0,6 km/h (0 Bft) 0 min
10.04.2015 20:50 21,7 C 14,3 C 13,9 C 38 % 0 % 1022 hPa 0,0 l/m 0,1 km/h (0 Bft) 0 min
10.04.2015 20:53 21,7 C 14,2 C 13,9 C 39 % 0 % 1022 hPa 0,0 l/m 0,1 km/h (0 Bft) 0 min
10.04.2015 20:56 21,7 C 14,2 C 13,7 C 39 % 0 % 1022 hPa 0,0 l/m 1,6 km/h (1 Bft) 0 min
10.04.2015 20:59 21,7 C 14,0 C 13,7 C 41 % 0 % 1022 hPa 0,0 l/m 3,6 km/h (1 Bft) 0 min
10.04.2015 21:02 21,7 C 13,9 C 13,6 C 41 % 0 % 1022 hPa 0,0 l/m 2,3 km/h (1 Bft) 0 min
10.04.2015 21:05 21,7 C 13,8 C 13,5 C 42 % 0 % 1022 hPa 0,0 l/m 1,9 km/h (1 Bft) 0 min
10.04.2015 21:08 21,7 C 13,8 C 13,4 C 41 % 0 % 1022 hPa 0,0 l/m 4,3 km/h (1 Bft) 0 min
10.04.2015 21:11 21,7 C 13,7 C 13,0 C 41 % 0 % 1022 hPa 0,0 l/m 0,0 km/h (0 Bft) 0 min
10.04.2015 21:14 21,7 C 13,6 C 13,1 C 41 % 0 % 1022 hPa 0,0 l/m 0,0 km/h (0 Bft) 0 min
10.04.2015 21:17 21,7 C 13,5 C 13,3 C 42 % 0 % 1022 hPa 0,0 l/m 0,1 km/h (0 Bft) 0 min
10.04.2015 21:20 21,7 C 13,3 C 13,0 C 43 % 0 % 1022 hPa 0,0 l/m 0,4 km/h (0 Bft) 0 min
10.04.2015 21:23 21,7 C 13,0 C 13,0 C 45 % 0 % 1022 hPa 0,0 l/m 1,8 km/h (1 Bft) 0 min
10.04.2015 21:26 21,7 C 12,9 C 13,0 C 46 % 0 % 1022 hPa 0,0 l/m 1,7 km/h (1 Bft) 0 min
10.04.2015 21:29 21,6 C 12,9 C 13,0 C 45 % 0 % 1022 hPa 0,0 l/m 1,7 km/h (1 Bft) 0 min
10.04.2015 21:32 21,7 C 12,9 C 13,0 C 45 % 0 % 1022 hPa 0,0 l/m 0,9 km/h (0 Bft) 0 min
10.04.2015 21:35 21,6 C 12,8 C 12,9 C 45 % 0 % 1022 hPa 0,0 l/m 1,4 km/h (1 Bft) 0 min
10.04.2015 21:38 21,6 C 12,7 C 12,6 C 45 % 0 % 1022 hPa 0,0 l/m 0,1 km/h (0 Bft) 0 min
10.04.2015 21:41 21,6 C 12,7 C 12,6 C 45 % 0 % 1022 hPa 0,0 l/m 0,0 km/h (0 Bft) 0 min
10.04.2015 21:44 21,6 C 12,6 C 12,4 C 45 % 0 % 1022 hPa 0,0 l/m 0,0 km/h (0 Bft) 0 min
10.04.2015 21:47 21,6 C 12,5 C 12,3 C 45 % 0 % 1022 hPa 0,0 l/m 0,0 km/h (0 Bft) 0 min
10.04.2015 21:50 21,6 C 12,5 C 12,6 C 45 % 0 % 1022 hPa 0,0 l/m 0,0 km/h (0 Bft) 0 min
10.04.2015 21:53 21,6 C 12,3 C 12,3 C 45 % 0 % 1022 hPa 0,0 l/m 0,0 km/h (0 Bft) 0 min
10.04.2015 21:56 21,6 C 12,2 C 12,2 C 46 % 0 % 1022 hPa 0,0 l/m 0,0 km/h (0 Bft) 0 min
10.04.2015 21:59 21,6 C 12,0 C 12,2 C 48 % 0 % 1022 hPa 0,0 l/m 0,1 km/h (0 Bft) 0 min
10.04.2015 22:02 21,6 C 11,9 C 12,3 C 48 % 0 % 1022 hPa 0,0 l/m 2,1 km/h (1 Bft) 0 min
10.04.2015 22:05 21,6 C 11,9 C 12,0 C 49 % 0 % 1022 hPa 0,0 l/m 2,5 km/h (1 Bft) 0 min
10.04.2015 22:08 21,6 C 11,8 C 12,2 C 49 % 0 % 1021 hPa 0,0 l/m 2,8 km/h (1 Bft) 0 min
10.04.2015 22:11 21,6 C 11,8 C 12,1 C 48 % 0 % 1021 hPa 0,0 l/m 2,8 km/h (1 Bft) 0 min
10.04.2015 22:14 21,6 C 11,7 C 12,0 C 49 % 0 % 1021 hPa 0,0 l/m 2,8 km/h (1 Bft) 0 min
10.04.2015 22:17 21,6 C 11,7 C 12,0 C 48 % 0 % 1022 hPa 0,0 l/m 1,9 km/h (1 Bft) 0 min
10.04.2015 22:20 21,6 C 11,6 C 12,0 C 49 % 0 % 1022 hPa 0,0 l/m 3,0 km/h (1 Bft) 0 min
10.04.2015 22:23 21,6 C 11,6 C 11,6 C 49 % 0 % 1022 hPa 0,0 l/m 0,1 km/h (0 Bft) 0 min
10.04.2015 22:26 21,6 C 11,5 C 11,6 C 49 % 0 % 1022 hPa 0,0 l/m 0,0 km/h (0 Bft) 0 min
10.04.2015 22:29 21,6 C 11,4 C 11,3 C 49 % 0 % 1021 hPa 0,0 l/m 0,4 km/h (0 Bft) 0 min
10.04.2015 22:32 21,6 C 11,3 C 11,6 C 49 % 0 % 1021 hPa 0,0 l/m 1,3 km/h (1 Bft) 0 min
10.04.2015 22:35 21,6 C 11,2 C 11,3 C 49 % 0 % 1022 hPa 0,0 l/m 0,0 km/h (0 Bft) 0 min
10.04.2015 22:38 21,6 C 11,1 C 11,2 C 50 % 0 % 1022 hPa 0,0 l/m 0,0 km/h (0 Bft) 0 min
10.04.2015 22:41 21,6 C 11,1 C 11,0 C 50 % 0 % 1022 hPa 0,0 l/m 0,0 km/h (0 Bft) 0 min
10.04.2015 22:44 21,6 C 11,0 C 11,0 C 50 % 0 % 1022 hPa 0,0 l/m 0,0 km/h (0 Bft) 0 min
10.04.2015 22:47 21,6 C 10,8 C 11,4 C 50 % 0 % 1022 hPa 0,0 l/m 0,1 km/h (0 Bft) 0 min
10.04.2015 22:50 21,6 C 10,7 C 11,4 C 50 % 0 % 1022 hPa 0,0 l/m 1,8 km/h (1 Bft) 0 min
10.04.2015 22:53 21,6 C 10,7 C 11,1 C 51 % 0 % 1022 hPa 0,0 l/m 0,0 km/h (0 Bft) 0 min
10.04.2015 22:56 21,6 C 10,6 C 11,2 C 51 % 0 % 1022 hPa 0,0 l/m 0,0 km/h (0 Bft) 0 min
10.04.2015 22:59 21,6 C 10,6 C 11,0 C 52 % 0 % 1022 hPa 0,0 l/m 1,4 km/h (1 Bft) 0 min
10.04.2015 23:02 21,6 C 10,5 C 11,0 C 52 % 0 % 1022 hPa 0,0 l/m 1,2 km/h (1 Bft) 0 min
10.04.2015 23:05 21,6 C 10,5 C 11,1 C 52 % 0 % 1022 hPa 0,0 l/m 0,6 km/h (0 Bft) 0 min
10.04.2015 23:08 21,6 C 10,5 C 10,7 C 52 % 0 % 1022 hPa 0,0 l/m 0,0 km/h (0 Bft) 0 min
10.04.2015 23:11 21,6 C 10,4 C 10,6 C 52 % 0 % 1022 hPa 0,0 l/m 0,0 km/h (0 Bft) 0 min
10.04.2015 23:14 21,6 C 10,3 C 10,6 C 53 % 0 % 1022 hPa 0,0 l/m 0,3 km/h (0 Bft) 0 min
10.04.2015 23:17 21,6 C 10,2 C 10,9 C 53 % 0 % 1022 hPa 0,0 l/m 1,5 km/h (1 Bft) 0 min
10.04.2015 23:20 21,6 C 10,2 C 10,7 C 53 % 0 % 1022 hPa 0,0 l/m 0,7 km/h (0 Bft) 0 min
10.04.2015 23:23 21,6 C 10,1 C 10,6 C 53 % 0 % 1022 hPa 0,0 l/m 0,1 km/h (0 Bft) 0 min
10.04.2015 23:26 21,6 C 10,0 C 10,7 C 53 % 0 % 1022 hPa 0,0 l/m 1,0 km/h (0 Bft) 0 min
10.04.2015 23:29 21,6 C 10,0 C 10,4 C 53 % 0 % 1022 hPa 0,0 l/m 1,8 km/h (1 Bft) 0 min
10.04.2015 23:32 21,6 C 9,8 C 10,3 C 54 % 0 % 1022 hPa 0,0 l/m 0,0 km/h (0 Bft) 0 min
10.04.2015 23:35 21,6 C 9,8 C 10,6 C 54 % 0 % 1022 hPa 0,0 l/m 0,0 km/h (0 Bft) 0 min
10.04.2015 23:38 21,6 C 9,6 C 10,3 C 55 % 0 % 1022 hPa 0,0 l/m 0,1 km/h (0 Bft) 0 min
10.04.2015 23:41 21,6 C 9,5 C 10,2 C 58 % 0 % 1022 hPa 0,0 l/m 0,0 km/h (0 Bft) 0 min
10.04.2015 23:44 21,6 C 9,5 C 10,4 C 58 % 0 % 1022 hPa 0,0 l/m 0,0 km/h (0 Bft) 0 min
10.04.2015 23:47 21,6 C 9,5 C 10,4 C 57 % 0 % 1022 hPa 0,0 l/m 0,4 km/h (0 Bft) 0 min
10.04.2015 23:50 21,6 C 9,4 C 10,2 C 57 % 0 % 1022 hPa 0,0 l/m 0,6 km/h (0 Bft) 0 min
10.04.2015 23:53 21,6 C 9,4 C 10,3 C 56 % 0 % 1022 hPa 0,0 l/m 1,2 km/h (1 Bft) 0 min
10.04.2015 23:56 21,6 C 9,3 C 9,8 C 56 % 0 % 1022 hPa 0,0 l/m 0,1 km/h (0 Bft) 0 min
10.04.2015 23:59 21,6 C 9,2 C 10,0 C 57 % 0 % 1022 hPa 0,0 l/m 0,1 km/h (0 Bft) 0 min
_ Min-Zeit 02:49 06:26 07:05 14:08 - 19:08 - 00:01 -
Minimum _ 21,4 C 2,9 C 4,1 C 20 % - 1021 hPa - 0,0 km/h (0 Bft) -
_ Max-Zeit 16:35 16:23 16:17 07:17 14:23 00:01 00:01 16:26 06:38
Maximum _ 22,0 C 22,1 C 20,7 C 74 % 80 % 1027 hPa 0,0 l/m 14,9 km/h
NO (3 Bft)
3 min
Durchschnitt _ 21,6 C 12,5 C 11,1 C 47 % #10:42 h 1025 hPa #0,0 l/m 2,3 km/h (1 Bft) #10:42 h